Content
SEND FEEDBACK

Daily
Averages
Monthly
Summary
United States of America

STANHOPE, IOWA


Home > North America > United States > Iowa
Elevation: 1100 feet     Latitude: 42 26N     Longitude: 093 52W

WEATHER
 
SELECT A DAY
Number of Records: 97,923;   Date Range: 4/23/95 - 9/18/14
 
SHARE

PRINT THIS DATA

[ ← Previous Day ]
WEATHER ALMANAC - JANUARY 23, 2013
[ Next Day → ]
[ °C ]   °F
Weather ElementAverageHighLow
Temperature14.6 °F24.6 °F (12:55 pm)2.1 °F (11:55 pm)
Dewpoint4.8 °F14 °F (12:35 pm)-8.7 °F (11:15 pm)
Humidity65.5 %79 % (7:15 am)51 % (4:55 pm)
Barometer30.27 in30.54 in (11:55 pm)30.14 in (5:15 am)
Wind Speed13.6 mph26.5 mph (7:15 pm)
Wind Gust31.1 mph (7:15 pm)
Weather ElementAverage
Visibility10 mi
Wind DirectionW (267.2 °)

Weather ElementTotal
Precipitation---
Heating Degree Days51.7 (Base 65)
Averaged from 64 records on January 23, 2013
WEATHER CONDITIONS BREAKOUT
WIND DIRECTION BREAKOUT
WEATHER BY HOUR - JANUARY 23, 2013
[ °C ]   °F
Local TimeTemperatureDewpointHumidityBarometerVisibilityWind DirectionWind SpeedGust SpeedPrecipitationEventsConditions
12:35 AM15.6 °F7.5 °F70 %30.22 in10.0 miSouth (190°)10.4 mphOvercast
12:55 AM15.8 °F7.3 °F69 %30.22 in10.0 miSSW (200°)10.4 mphOvercast
1:15 AM15.8 °F7.0 °F68 %30.21 in10.0 miSSW (200°)10.4 mphOvercast
1:35 AM16.2 °F7.3 °F68 %30.21 in10.0 miSSW (200°)8.1 mphOvercast
1:55 AM16.5 °F7.5 °F68 %30.21 in10.0 miSSW (210°)9.2 mphOvercast
2:15 AM16.5 °F6.8 °F66 %30.22 in10.0 miSSW (200°)9.2 mphOvercast
2:35 AM16.7 °F6.8 °F65 %30.22 in10.0 miSSW (200°)10.4 mphOvercast
2:55 AM16.7 °F7.2 °F66 %30.21 in10.0 miSSW (200°)10.4 mphOvercast
3:15 AM16.7 °F7.2 °F66 %30.19 in10.0 miSSW (210°)11.5 mphOvercast
3:35 AM16.7 °F7.2 °F66 %30.18 in10.0 miSSW (200°)11.5 mphOvercast
4:15 AM16.7 °F7.3 °F67 %30.17 in10.0 miSSW (200°)11.5 mphOvercast
4:35 AM16.7 °F7.5 °F67 %30.16 in10.0 miSSW (200°)12.7 mphOvercast
5:15 AM16.7 °F7.7 °F68 %30.14 in10.0 miSSW (210°)12.7 mphOvercast
5:35 AM16.5 °F7.7 °F68 %30.14 in10.0 miSSW (200°)9.2 mphOvercast
5:55 AM16.2 °F7.9 °F70 %30.15 in10.0 miSW (220°)8.1 mphOvercast
6:15 AM14.9 °F6.8 °F70 %30.16 in10.0 miSW (220°)8.1 mphMostly Cloudy
6:35 AM12.7 °F5.7 °F74 %30.16 in10.0 miSW (230°)4.6 mphScattered Clouds
6:55 AM12.0 °F5.5 °F75 %30.16 in10.0 miSW (230°)5.8 mphMostly Cloudy
7:15 AM10.4 °F5.0 °F79 %30.15 in10.0 miSW (230°)5.8 mphScattered Clouds
7:35 AM10.2 °F4.8 °F79 %30.15 in10.0 miSW (230°)5.8 mphClear
7:55 AM12.2 °F6.6 °F78 %30.16 in10.0 miWSW (240°)4.6 mphClear
8:15 AM13.3 °F7.3 °F77 %30.16 in10.0 miWest (260°)6.9 mphClear
8:35 AM14.0 °F7.5 °F75 %30.16 in10.0 miWest (260°)6.9 mphClear
8:55 AM14.9 °F8.4 °F76 %30.16 in10.0 miWest (280°)8.1 mphClear
9:15 AM15.6 °F8.4 °F73 %30.16 in10.0 miWest (280°)9.2 mphClear
9:35 AM17.2 °F9.5 °F72 %30.18 in10.0 miNW (310°)8.1 mphClear
9:55 AM17.6 °F9.5 °F71 %30.19 in10.0 miNW (310°)12.7 mph17.3 mphClear
10:15 AM18.3 °F10.2 °F71 %30.19 in10.0 miNNW (330°)10.4 mphClear
10:55 AM21.2 °F12.0 °F68 %30.21 in10.0 miNNW (340°)15.0 mph19.6 mphClear
11:15 AM22.1 °F12.9 °F68 %30.22 in10.0 miNorth (350°)15.0 mph19.6 mphClear
11:35 AM22.8 °F13.5 °F67 %30.22 in10.0 miNNW (340°)15.0 mphClear
11:55 AM23.0 °F13.5 °F67 %30.21 in10.0 miNNW (330°)15.0 mph19.6 mphScattered Clouds
12:15 PM23.2 °F13.5 °F66 %30.21 in10.0 miNNW (340°)13.8 mphScattered Clouds
12:35 PM24.3 °F14.0 °F65 %30.22 in10.0 miNNW (330°)12.7 mph18.4 mphMostly Cloudy
12:55 PM24.6 °F14.0 °F64 %30.21 in10.0 miNNW (330°)12.7 mph17.3 mphScattered Clouds
1:15 PM24.6 °F13.6 °F63 %30.21 in10.0 miNNW (330°)13.8 mph19.6 mphMostly Cloudy
1:55 PM24.1 °F12.4 °F61 %30.22 in10.0 miNW (320°)15.0 mph24.2 mphMostly Cloudy
2:15 PM24.3 °F11.7 °F59 %30.22 in10.0 miNW (320°)13.8 mph26.5 mphMostly Cloudy
2:35 PM23.7 °F11.7 °F60 %30.22 in10.0 miNW (320°)13.8 mph24.2 mphMostly Cloudy
2:55 PM24.6 °F12.0 °F59 %30.24 in10.0 miNNW (330°)19.6 mph28.8 mphMostly Cloudy
3:35 PM23.5 °F9.5 °F55 %30.26 in10.0 miNNW (340°)17.3 mph28.8 mphClear
3:55 PM22.3 °F7.9 °F54 %30.26 in10.0 miNNW (340°)21.9 mph29.9 mphClear
4:15 PM21.4 °F7.3 °F55 %30.27 in10.0 miNNW (340°)21.9 mph28.8 mphClear
4:35 PM20.1 °F7.0 °F57 %30.29 in10.0 miNNW (340°)21.9 mph28.8 mphClear
4:55 PM18.3 °F3.0 °F51 %30.30 in10.0 miNorth (350°)18.4 mph27.6 mphClear
5:15 PM16.3 °F2.8 °F55 %30.32 in10.0 miNNW (340°)24.2 mph27.6 mphClear
5:35 PM14.5 °F2.1 °F58 %30.34 in10.0 miNNW (340°)18.4 mph25.3 mphClear
6:15 PM11.5 °F-0.6 °F58 %30.36 in10.0 miNorth (350°)23.0 mph27.6 mphClear
6:55 PM9.5 °F-1.5 °F61 %30.39 in10.0 miNorth (350°)24.2 mph28.8 mphClear
7:15 PM7.9 °F-3.5 °F60 %30.40 in10.0 miNorth (350°)26.5 mph31.1 mphClear
7:35 PM7.0 °F-2.9 °F64 %30.42 in10.0 miNorth (350°)17.3 mph26.5 mphClear
7:55 PM5.9 °F-4.5 °F62 %30.42 in10.0 miNorth (350°)23.0 mph28.8 mphClear
8:15 PM5.5 °F-5.8 °F60 %30.42 in10.0 miNorth (350°)21.9 mph26.5 mphClear
8:35 PM5.0 °F-6.2 °F60 %30.44 in10.0 miNorth (350°)18.4 mph25.3 mphClear
8:55 PM4.5 °F-5.8 °F63 %30.44 in10.0 miNorth (350°)18.4 mphClear
9:15 PM4.1 °F-5.8 °F64 %30.46 in10.0 miNorth (350°)16.1 mph20.7 mphClear
9:35 PM3.9 °F-6.2 °F63 %30.47 in10.0 miNorth (360°)17.3 mph24.2 mphClear
9:55 PM3.2 °F-6.2 °F65 %30.47 in10.0 miNorth (360°)15.0 mph20.7 mphClear
10:15 PM3.0 °F-6.3 °F65 %30.48 in10.0 miNorth (360°)15.0 mphClear
10:35 PM2.8 °F-6.7 °F64 %30.48 in10.0 miNorth (10°)12.7 mph18.4 mphClear
10:55 PM2.7 °F-7.4 °F63 %30.49 in10.0 miNorth (10°)13.8 mph19.6 mphClear
11:15 PM2.3 °F-8.7 °F60 %30.51 in10.0 miNorth (10°)12.7 mphClear
11:35 PM2.3 °F-7.6 °F63 %30.52 in10.0 miNorth (10°)11.5 mphClear
11:55 PM2.1 °F-8.1 °F62 %30.54 in10.0 miNorth (10°)13.8 mphClear
Hourly data recorded from KEBS, located miles away from Stanhope, Iowa







STORIES FROM OUR PARTNERS